Salem, OR

12:08 AM PDT on July 25, 2017 (GMT -0700)
McNary

Weather History for KSLE - September, 2011

Change the Weather History Date:

Saturday, September 24, 2011

  Actual Average Record
Temperature  
Mean Temperature 70 °F 60 °F  
Max Temperature 87 °F 74 °F 98 °F (1974)
Min Temperature 53 °F 47 °F 34 °F (1934)
Degree Days  
Heating Degree Days 0 5  
Month to date heating degree days 22 73  
Since 1 July heating degree days 51 129  
Cooling Degree Days 5 1  
Month to date cooling degree days 101 35  
Year to date cooling degree days 316 287  
Growing Degree Days 18 (Base 50)    
Moisture  
Dew Point 54 °F    
Average Humidity 65    
Maximum Humidity 100    
Minimum Humidity 30    
Precipitation  
Precipitation 0.00 in 0.05 in 1.17 in (1924)
Month to date precipitation 0.08 0.93  
Year to date precipitation 24.18 22.93  
Snow  
Snow 0.00 in - - ()
Month to date snowfall 0.0  
Snow Depth 0.00 in    
Sea Level Pressure  
Sea Level Pressure 29.78 in    
Wind  
Wind Speed 5 mph (SSW)    
Max Wind Speed 15 mph    
Max Gust Speed 17 mph    
Visibility 8 miles    
Events Fog    
T = Trace of Precipitation, MM = Missing Value Source: NWS Daily Summary

Daily Weather History Graph

Daily Weather History Graph

Search for Another Location

Airport or City:

Trip Planner

Search our weather history database for the weather conditions in past years. The results will help you decide how hot, cold, wet, or windy it might be!

Date:

Astronomy

Sep. 24, 2011 Rise Set
Actual Time 7:01 AM PDT 7:05 PM PDT
Civil Twilight 6:32 AM PDT 7:35 PM PDT
Nautical Twilight 5:57 AM PDT 8:09 PM PDT
Astronomical Twilight 5:22 AM PDT 8:44 PM PDT
Moon 3:36 AM PDT (9/24) 5:21 PM PDT (9/24)
Length of Visible Light 13h 03m
Length of Day
12h 04m
Waning Crescent, 10% of the Moon is Illuminated
Sep 24
Waning Crescent
Sep 27
New
Oct 3
First Quarter
Oct 11
Full
Oct 19
Last Quarter

Hourly Weather History & Observations

Time (PDT) Temp. Heat Index Dew Point Humidity Pressure Visibility Wind Dir Wind Speed Gust Speed Precip Events Conditions
12:56 AM 64.9 °F - 59.0 °F 81% 29.90 in 10.0 mi WSW 8.1 mph - N/A   Clear
1:56 AM 61.0 °F - 57.9 °F 90% 29.90 in 10.0 mi SW 3.5 mph - N/A   Clear
2:56 AM 60.1 °F - 57.0 °F 90% 29.88 in 10.0 mi Calm Calm - N/A   Clear
3:56 AM 57.0 °F - 55.0 °F 93% 29.87 in 10.0 mi Calm Calm - N/A   Clear
4:56 AM 54.0 °F - 53.1 °F 97% 29.85 in 10.0 mi Calm Calm - N/A   Clear
5:56 AM 55.0 °F - 54.0 °F 96% 29.84 in 10.0 mi Calm Calm - N/A   Clear
6:56 AM 53.1 °F - 52.0 °F 96% 29.83 in 10.0 mi SSE 3.5 mph - N/A Fog Patches of Fog
7:11 AM 53.6 °F - 51.8 °F 94% 29.83 in 4.0 mi South 3.5 mph - N/A   Scattered Clouds
7:13 AM 53.6 °F - 53.6 °F 100% 29.83 in 1.5 mi South 3.5 mph - N/A   Scattered Clouds
7:22 AM 55.4 °F - 53.6 °F 94% 29.83 in 0.1 mi SSE 3.5 mph - N/A Fog Fog
8:14 AM 57.2 °F - 57.2 °F 100% 29.82 in 0.8 mi SSE 8.1 mph - N/A Fog Overcast
8:29 AM 57.2 °F - 57.2 °F 100% 29.82 in 1.2 mi SE 9.2 mph - N/A Fog Mostly Cloudy
8:41 AM 57.2 °F - 57.2 °F 100% 29.82 in 5.0 mi SE 5.8 mph - N/A Fog Scattered Clouds
8:56 AM 59.0 °F - 57.0 °F 93% 29.82 in 10.0 mi SE 6.9 mph - N/A   Partly Cloudy
9:56 AM 64.9 °F - 57.9 °F 78% 29.80 in 10.0 mi SSE 4.6 mph - N/A   Partly Cloudy
10:56 AM 71.1 °F - 57.9 °F 63% 29.79 in 10.0 mi Variable 4.6 mph - N/A   Partly Cloudy
11:56 AM 73.9 °F - 57.9 °F 57% 29.77 in 10.0 mi SSE 6.9 mph - N/A   Clear
12:56 PM 78.1 °F - 57.9 °F 50% 29.74 in 10.0 mi Variable 3.5 mph - N/A   Clear
1:56 PM 82.9 °F 81.8 °F 53.1 °F 36% 29.72 in 10.0 mi South 9.2 mph - N/A   Clear
2:56 PM 84.9 °F - 50.0 °F 30% 29.70 in 10.0 mi WSW 9.2 mph - N/A   Clear
3:56 PM 84.9 °F - 52.0 °F 32% 29.68 in 10.0 mi West 3.5 mph - N/A   Clear
4:56 PM 81.0 °F - 48.0 °F 31% 29.67 in 10.0 mi West 9.2 mph - N/A   Clear
5:56 PM 81.0 °F - 46.9 °F 30% 29.67 in 10.0 mi WSW 11.5 mph - N/A   Clear
6:56 PM 75.0 °F - 48.9 °F 40% 29.66 in 10.0 mi WSW 5.8 mph - N/A   Clear
7:56 PM 72.0 °F - 48.9 °F 44% 29.66 in 10.0 mi WSW 5.8 mph - N/A   Clear
8:56 PM 68.0 °F - 48.9 °F 50% 29.67 in 10.0 mi West 4.6 mph - N/A   Clear
10:56 PM 62.1 °F - 51.1 °F 67% 29.70 in 10.0 mi SSE 6.9 mph - N/A   Clear
11:56 PM 62.1 °F - 52.0 °F 70% 29.70 in 10.0 mi SSE 8.1 mph - N/A   Clear